This demonstration page uses our WeatherBlox Daily Observations layout. Learn more.

Hourly Observations for May 4, 2017

Temp ( °F °C ) Dew Point ( °F °C ) Humidity (%) Winds ( mph kmh ) Pressure ( in mb ) Visibility ( mi km ) Precip ( " mm )
12:15 am 00:15 Clear 39 3.7 35 1.9 88 88 W 5 7 30.27 1025 10 16.09344 0 0
12:35 am 00:35 Clear 40 4.2 36 2.1 86 86 W 6 9 30.27 1025 10 16.09344 0 0
12:55 am 00:55 Clear 37 2.6 34 1.1 90 90 W 6 9 30.27 1025 10 16.09344 0 0
1:15 am 01:15 Clear 37 3 34 1.3 89 89 W 7 11 30.27 1025 10 16.09344 0 0
1:35 am 01:35 Clear 38 3.4 35 1.5 88 88 WNW 6 9 30.27 1025 10 16.09344 0 0
1:55 am 01:55 Clear 37 2.5 34 0.9 89 89 W 8 13 30.27 1025 10 16.09344 0 0
2:15 am 02:15 Clear 37 2.5 33 0.8 89 89 W 6 9 30.27 1025 10 16.09344 0 0
2:35 am 02:35 Clear 36 2.2 33 0.4 88 88 W 8 13 30.24 1024 10 16.09344 0 0
2:55 am 02:55 Clear 37 2.5 33 0.6 87 87 WNW 6 9 30.24 1024 10 16.09344 0 0
3:15 am 03:15 Clear 37 2.6 33 0.7 87 87 WNW 9 15 30.24 1024 10 16.09344 0 0
3:35 am 03:35 Clear 37 2.7 33 0.8 87 87 WNW 12 19 30.24 1024 10 16.09344 0 0
3:55 am 03:55 Clear 37 2.6 33 0.5 86 86 WNW 8 13 30.24 1024 10 16.09344 0 0
4:15 am 04:15 Clear 36 2.1 33 0.4 89 89 WNW 8 13 30.24 1024 10 16.09344 0 0
4:35 am 04:35 Clear 36 2.2 33 0.3 87 87 WNW 9 15 30.24 1024 10 16.09344 0 0
4:55 am 04:55 Clear 37 2.5 33 0.5 87 87 WNW 9 15 30.24 1024 10 16.09344 0 0
5:15 am 05:15 Clear 36 2.3 33 0.3 87 87 WNW 10 17 30.24 1024 10 16.09344 0 0
5:35 am 05:35 Clear 36 2.3 33 0.3 87 87 WNW 10 17 30.24 1024 10 16.09344 0 0
5:55 am 05:55 Clear 36 2.2 32 0.2 87 87 WNW 9 15 30.24 1024 10 16.09344 0 0
6:15 am 06:15 Clear 36 2.1 32 0.1 87 87 WNW 12 19 30.24 1024 10 16.09344 0 0
6:35 am 06:35 Sunny 36 2 32 0 87 87 WNW 10 17 30.27 1025 10 16.09344 0 0
6:55 am 06:55 Sunny 36 2.2 32 0.1 86 86 WNW 10 17 30.24 1024 10 16.09344 0 0
7:15 am 07:15 Sunny 37 2.5 33 0.5 87 87 WNW 10 17 30.24 1024 10 16.09344 0 0
7:35 am 07:35 Sunny 38 3.2 34 1 86 86 WNW 10 17 30.24 1024 10 16.09344 0 0
7:55 am 07:55 Sunny 39 4.1 35 1.6 84 84 WNW 13 20 30.27 1025 10 16.09344 0 0
8:15 am 08:15 Sunny 41 5.2 36 2.2 81 81 WNW 12 19 30.27 1025 10 16.09344 0 0
8:35 am 08:35 Sunny 43 6.2 37 2.6 78 78 WNW 12 19 30.24 1024 10 16.09344 0 0
8:55 am 08:55 Sunny 46 7.6 38 3.4 75 75 WNW 12 19 30.24 1024 10 16.09344 0 0
9:15 am 09:15 Sunny 48 8.9 40 4.3 73 73 WNW 10 17 30.21 1023 10 16.09344 0 0
9:35 am 09:35 Sunny 50 10.1 41 4.8 70 70 WNW 9 15 30.21 1023 10 16.09344 0 0
9:55 am 09:55 Sunny 53 11.5 42 5.4 66 66 WNW 8 13 30.21 1023 10 16.09344 0 0
10:15 am 10:15 Sunny 55 12.8 42 5.8 63 63 WNW 8 13 30.18 1022 10 16.09344 0 0
10:35 am 10:35 Sunny 57 14.1 43 6.1 59 59 WNW 10 17 30.18 1022 10 16.09344 0 0
10:55 am 10:55 Sunny 59 14.9 43 6.1 56 56 NW 8 13 30.18 1022 10 16.09344 0 0
11:15 am 11:15 Sunny 60 15.7 42 5.6 51 51 WNW 8 13 30.15 1021 10 16.09344 0 0
11:35 am 11:35 Sunny 62 16.5 38 3.6 42 42 NNW 6 9 30.15 1021 10 16.09344 0 0
11:55 am 11:55 Partly Cloudy 64 17.5 36 2.2 36 36 N 13 20 30.15 1021 10 16.09344 0 0
12:15 pm 12:15 Sunny 64 17.6 36 2.3 36 36 N 12 19 30.15 1021 10 16.09344 0 0
12:35 pm 12:35 Partly Cloudy 64 17.8 37 2.9 37 37 NNW 9 15 30.15 1021 10 16.09344 0 0
12:55 pm 12:55 Sunny 64 17.8 34 1 32 32 N 10 17 30.12 1020 10 16.09344 0 0
1:15 pm 13:15 Partly Cloudy 65 18.1 36 2.2 35 35 N 9 15 30.09 1019 10 16.09344 0 0
1:35 pm 13:35 Partly Cloudy 65 18.5 37 2.9 36 36 NNW 12 19 30.09 1019 10 16.09344 0 0
1:55 pm 13:55 Partly Cloudy 65 18.4 36 2.1 34 34 N 12 19 30.09 1019 10 16.09344 0 0
2:15 pm 14:15 Partly Cloudy 65 18.5 36 2.2 34 34 NNW 10 17 30.06 1018 10 16.09344 0 0
2:35 pm 14:35 Partly Cloudy 65 18.6 36 2.2 34 34 N 8 13 30.06 1018 10 16.09344 0 0
2:55 pm 14:55 Partly Cloudy 66 19.1 36 2 32 32 WNW 6 9 30.06 1018 10 16.09344 0 0
3:15 pm 15:15 Partly Cloudy 66 19.1 36 2.1 32 32 NNW 9 15 30.06 1018 10 16.09344 0 0
3:35 pm 15:35 Sunny 67 19.4 37 2.6 33 33 N 7 11 30.06 1018 10 16.09344 0 0
3:55 pm 15:55 Sunny 67 19.6 37 2.9 33 33 N 10 17 30.06 1018 10 16.09344 0 0
4:15 pm 16:15 Sunny 67 19.6 36 2.2 32 32 N 13 20 30.06 1018 10 16.09344 0 0
4:35 pm 16:35 Sunny 67 19.7 37 2.6 32 32 N 5 7 30.03 1017 10 16.09344 0 0
4:55 pm 16:55 Sunny 68 19.9 37 2.5 32 32 NNW 7 11 30.03 1017 10 16.09344 0 0
5:15 pm 17:15 Sunny 68 20 36 2.4 31 31 N 9 15 30.03 1017 10 16.09344 0 0
5:35 pm 17:35 Sunny 68 20 37 2.5 31 31 NNE 10 17 30.03 1017 10 16.09344 0 0
5:55 pm 17:55 Sunny 68 20 37 2.7 32 32 N 9 15 30.03 1017 10 16.09344 0 0
6:15 pm 18:15 Sunny 68 19.8 36 2.4 32 32 N 7 11 30.03 1017 10 16.09344 0 0
6:35 pm 18:35 Sunny 67 19.5 36 2.2 32 32 NNW 10 17 30.03 1017 10 16.09344 0 0
6:55 pm 18:55 Sunny 67 19.3 36 2.1 32 32 N 7 11 30.03 1017 10 16.09344 0 0
7:15 pm 19:15 Sunny 66 19.1 37 2.5 33 33 N 6 9 30.03 1017 10 16.09344 0 0
7:35 pm 19:35 Sunny 65 18.1 39 3.9 39 39 NNE 7 11 30 1016 10 16.09344 0 0
7:55 pm 19:55 Sunny 63 17 41 5.2 46 46 NE 6 9 30.03 1017 10 16.09344 0 0
8:15 pm 20:15 Sunny 61 15.9 42 5.7 51 51 NE 5 7 30.06 1018 10 16.09344 0 0
8:35 pm 20:35 Sunny 59 14.9 41 4.9 51 51 ENE 7 11 30.06 1018 10 16.09344 0 0
8:55 pm 20:55 Clear 58 14.3 39 4 50 50 E 6 9 30.06 1018 10 16.09344 0 0
9:15 pm 21:15 Clear 56 13.6 39 3.9 52 52 E 5 7 30.09 1019 10 16.09344 0 0
9:35 pm 21:35 Clear 56 13.4 39 3.9 53 53 E 5 7 30.09 1019 10 16.09344 0 0
9:55 pm 21:55 Clear 54 12.2 39 4 58 58 Calm 30.09 1019 10 16.09344 0 0
10:15 pm 22:15 Clear 53 11.7 39 3.8 59 59 S 3 6 30.09 1019 10 16.09344 0 0
10:35 pm 22:35 Clear 50 9.9 40 4.2 68 68 SSE 3 6 30.12 1020 10 16.09344 0 0
10:55 pm 22:55 Clear 49 9.6 40 4.5 71 71 S 3 6 30.12 1020 10 16.09344 0 0
11:15 pm 23:15 Clear 49 9.4 40 4.2 70 70 Calm 30.12 1020 10 16.09344 0 0
11:35 pm 23:35 Clear 49 9.3 40 4.2 71 71 Calm 30.12 1020 10 16.09344 0 0
11:55 pm 23:55 Clear 48 9.1 40 4.2 72 72 Calm 30.12 1020 10 16.09344 0 0

Powered by AerisWeather